This is the latest recevied weather packets stored in our database for station/object KC8JWT. If no packets are shown the sender has not sent any weather packets the latest 10 day(s).
| Time | Temp. | Humidity | Pressure | Rain* | Wind** | Luminosity | Snow |
|---|---|---|---|---|---|---|---|
| 1777386405 | 16.67° C | 93% | 1014.2 hPa | 0 mm | - | 113 W/m² | - |
| 1777386102 | 16.67° C | 93% | 1014.1 hPa | 0 mm | - | 104 W/m² | - |
| 1777385798 | 17.22° C | 93% | 1014.2 hPa | 0 mm | - | 98 W/m² | - |
| 1777385496 | 17.22° C | 93% | 1014 hPa | 0 mm | - | 89 W/m² | - |
| 1777385193 | 17.22° C | 93% | 1014.2 hPa | 0 mm | - | 143 W/m² | - |
| 1777384888 | 17.22° C | 93% | 1014.2 hPa | 0 mm | - | 214 W/m² | - |
| 1777384587 | 17.22° C | 93% | 1014.2 hPa | 0 mm | - | 166 W/m² | - |
| 1777384286 | 17.22° C | 93% | 1014.1 hPa | 0 mm | - | 146 W/m² | - |
| 1777383981 | 16.67° C | 94% | 1014.1 hPa | 0 mm | - | 233 W/m² | - |
| 1777383678 | 16.67° C | 94% | 1013.9 hPa | 0 mm | - | 191 W/m² | - |
| 1777383375 | 16.11° C | 97% | 1014.2 hPa | 0 mm | - | 234 W/m² | - |
| 1777383070 | 15.56° C | 99% | 1014.1 hPa | 0 mm | - | 335 W/m² | - |
| 1777382768 | 15° C | 99% | 1014.3 hPa | 0 mm | - | 315 W/m² | - |
| 1777382463 | 15° C | 99% | 1014.1 hPa | 0 mm | - | 240 W/m² | - |
| 1777382159 | 15° C | 99% | 1014.1 hPa | 0 mm | - | 191 W/m² | - |
| 1777381856 | 15° C | 99% | 1014.2 hPa | 0 mm | - | 197 W/m² | - |
| 1777381555 | 14.44° C | 99% | 1013.9 hPa | 0 mm | - | 311 W/m² | - |
| 1777381250 | 13.89° C | 99% | 1014 hPa | 0 mm | - | 229 W/m² | - |
| 1777380949 | 13.89° C | 99% | 1014.1 hPa | 0 mm | - | 182 W/m² | - |
| 1777380645 | 13.33° C | 99% | 1014.2 hPa | 0 mm | - | 114 W/m² | - |
| 1777380341 | 13.33° C | 99% | 1014.1 hPa | 0 mm | - | 94 W/m² | - |
| 1777380037 | 13.33° C | 99% | 1014 hPa | 0 mm | - | 74 W/m² | - |
| 1777379733 | 13.33° C | 99% | 1014.1 hPa | 0 mm | - | 56 W/m² | - |
| 1777379429 | 13.33° C | 99% | 1013.7 hPa | 0 mm | - | 70 W/m² | - |
| 1777379124 | 13.33° C | 99% | 1013.9 hPa | 0 mm | - | 111 W/m² | - |
* Rain latest hour (hover to see other rain measurements)
** Current wind speed in m/s (hover to see current wind gust speed)